1512504000.77,22210,3.06,73270.8,-9.39,-10.09,-10.09,0,*50
1512504002.0,22211,3.06,73236.8,-9.39,-10.19,-10.19,0,*51
1512504003.24,22212,3.06,73254.0,-9.37,-10.09,-10.19,0,*5D
1512504004.48,22213,3.06,73252.8,-9.37,-10.09,-10.19,0,*5C
1512504005.69,22214,3.06,73258.0,-9.39,-10.09,-10.09,0,*54
1512504006.92,22215,3.06,73264.3,-9.37,-10.09,-10.05,0,*57
1512504008.14,22216,3.06,73270.8,-9.39,-10.19,-10.09,0,*57
1512504009.34,22217,3.06,73256.5,-9.39,-10.09,-10.09,0,*57
1512504010.55,22218,3.06,73274.0,-9.39,-10.09,-10.09,0,*58
1512504011.79,22219,3.06,73314.8,-9.37,-10.19,-10.09,0,*56
1512504013.05,22220,3.06,73318.5,-9.37,-10.19,-10.19,0,*5D
1512504014.29,22221,3.06,73306.8,-9.37,-10.23,-10.23,0,*5C
1512504015.54,22222,3.06,73288.8,-9.37,-10.23,-10.19,0,*56
1512504016.75,22223,3.06,73256.5,-9.39,-10.23,-10.23,0,*50
1512504017.99,22224,3.06,73282.8,-9.37,-10.23,-10.23,0,*59
1512504019.24,22225,3.06,73302.8,-9.37,-10.23,-10.23,0,*58
1512504020.48,22226,3.06,73304.3,-9.37,-10.19,-10.23,0,*52
1512504021.7,22227,3.06,73294.0,-9.39,-10.23,-10.23,0,*54
1512504022.91,22228,3.06,73266.8,-9.39,-10.23,-10.23,0,*5B
1512504024.15,22229,3.06,73238.5,-9.37,-10.27,-10.23,0,*50
1512504025.36,22230,3.06,73224.3,-9.39,-10.27,-10.23,0,*56
1512504026.61,22231,3.06,73230.8,-9.37,-10.19,-10.23,0,*54
1512504027.86,22232,3.06,73246.0,-9.37,-10.19,-10.23,0,*57
1512504029.11,22233,3.06,73254.8,-9.37,-10.19,-10.19,0,*5F
1512504030.33,22234,3.06,73264.5,-9.39,-10.19,-10.19,0,*56
1512504031.55,22235,3.06,73276.0,-9.39,-10.23,-10.23,0,*57
1512504032.77,22236,3.06,73278.3,-9.39,-10.23,-10.19,0,*5D
1512504034.02,22237,3.06,73276.3,-9.37,-10.19,-10.19,0,*5B
1512504035.27,22238,3.06,73286.3,-9.37,-10.19,-10.19,0,*54
1512504036.51,22239,3.06,73294.0,-9.37,-10.09,-10.05,0,*59
1512504037.74,22240,3.06,73286.8,-9.37,-10.09,-10.09,0,*5B
1512504038.98,22241,3.06,73288.8,-9.37,-10.09,-10.05,0,*56
1512504040.18,22242,3.06,73288.3,-9.39,-10.09,-10.05,0,*5B
1512504041.42,22243,3.06,73278.3,-9.37,-10.09,-10.09,0,*58
1512504042.66,22244,3.06,73286.3,-9.37,-10.19,-10.09,0,*5E
1512504043.87,22245,3.06,73288.0,-9.39,-10.09,-10.09,0,*50
1512504045.1,22246,3.06,73280.3,-9.37,-10.05,-10.05,0,*5D
1512504046.31,22247,3.06,73274.3,-9.39,-10.09,-10.05,0,*5E
1512504047.54,22248,3.06,73276.5,-9.37,-10.09,-10.05,0,*5F
1512504048.78,22249,3.06,73284.8,-9.37,-10.05,-10.05,0,*52
1512504050.01,22250,3.06,73290.0,-9.37,-10.05,-9.97,0,*69
1512504051.24,22251,3.06,73288.0,-9.37,-10.05,-9.97,0,*68
1512504052.47,22252,3.06,73298.5,-9.37,-10.05,-9.97,0,*6B
1512504053.7,22253,3.06,73302.0,-9.37,-9.93,-10.05,0,*6E
1512504054.92,22254,3.06,73300.8,-9.37,-9.97,-9.97,0,*5E
1512504056.16,22255,3.06,73312.0,-9.37,-10.09,-10.05,0,*53
1512504057.39,22256,3.06,73298.3,-9.37,-10.05,-10.05,0,*5C
1512504058.63,22257,3.06,73298.0,-9.37,-10.09,-10.05,0,*51
1512504059.86,22258,3.06,73306.5,-9.37,-10.09,-10.05,0,*5E
1512504061.07,22259,3.06,73306.0,-9.39,-10.05,-10.05,0,*5D
1512504062.3,22260,3.06,73296.8,-9.37,-10.05,-9.97,0,*6A
1512504063.5,22261,3.06,73298.8,-9.39,-10.05,-10.09,0,*5A
1512504064.74,22262,3.06,73302.8,-9.37,-10.09,-10.05,0,*57
1512504065.97,22263,3.06,73294.0,-9.37,-10.05,-10.05,0,*5A
1512504067.18,22264,3.06,73298.8,-9.35,-10.09,-10.05,0,*53
1512504068.39,22265,3.06,73306.3,-9.35,-10.01,-9.93,0,*6D
1512504069.61,22266,3.06,73304.0,-9.35,-10.01,-10.01,0,*5D
1512504070.82,22267,3.06,73308.8,-9.35,-10.01,-10.01,0,*5C
1512504072.03,22268,3.06,73308.3,-9.35,-10.01,-9.93,0,*60
1512504073.25,22269,3.06,73322.8,-9.35,-10.05,-10.01,0,*56
1512504074.47,22270,3.06,73328.5,-9.35,-10.01,-10.01,0,*5A
1512504075.67,22271,3.06,73330.0,-9.35,-10.01,-9.93,0,*68
1512504076.9,22272,3.06,73326.3,-9.33,-9.93,-9.93,0,*5E
1512504078.12,22273,3.06,73306.3,-9.33,-9.89,-9.93,0,*54
1512504079.32,22274,3.06,73280.0,-9.35,-9.93,-9.89,0,*55
1512504080.56,22275,3.06,73282.5,-9.33,-10.01,-10.05,0,*5D
1512504081.77,22276,3.06,73320.3,-9.35,-10.05,-10.01,0,*58
1512504082.98,22277,3.06,73356.8,-9.35,-10.05,-10.05,0,*5D
1512504084.2,22278,3.06,73344.5,-9.35,-10.01,-10.01,0,*52
1512504085.43,22279,3.06,73302.5,-9.35,-10.19,-10.19,0,*53
1512504086.65,22280,3.06,73278.5,-9.35,-10.23,-10.19,0,*5C
1512504087.87,22281,3.06,73276.5,-9.35,-10.23,-10.19,0,*5D
1512504089.09,22282,3.06,73292.8,-9.35,-10.31,-10.31,0,*57
1512504090.32,22283,3.06,73290.8,-9.35,-10.31,-10.35,0,*52
1512504091.53,22284,3.06,73286.8,-9.35,-10.23,-10.23,0,*51
1512504092.75,22285,3.06,73274.0,-9.35,-10.31,-10.31,0,*50
1512504093.97,22286,3.06,73276.8,-9.35,-10.23,-10.31,0,*50
1512504095.23,22287,3.06,73242.5,-9.37,-10.35,-10.35,0,*50
1512504096.48,22288,3.06,73270.3,-9.37,-10.27,-10.27,0,*5F
1512504097.73,22289,3.06,73262.5,-9.37,-10.35,-10.27,0,*5D
1512504098.98,22290,3.06,73250.3,-9.37,-10.35,-10.35,0,*56
1512504100.2,22291,3.06,73232.3,-9.39,-10.27,-10.23,0,*5D
1512504101.44,22292,3.06,73234.8,-9.37,-10.27,-10.19,0,*59
1512504102.69,22293,3.06,73236.0,-9.37,-10.23,-10.19,0,*5C
1512504103.94,22294,3.06,73248.0,-9.37,-10.19,-10.23,0,*5B
1512504105.19,22295,3.06,73246.5,-9.37,-10.19,-10.19,0,*53
1512504106.44,22296,3.06,73268.0,-9.37,-10.23,-10.19,0,*59
1512504107.66,22297,3.06,73262.8,-9.39,-10.23,-10.23,0,*5F
1512504108.9,22298,3.06,73294.0,-9.37,-10.23,-10.19,0,*57
1512504110.13,22299,3.06,73300.5,-9.39,-10.19,-10.19,0,*51
1512504111.38,22300,3.06,73298.5,-9.37,-10.19,-10.19,0,*5E
1512504112.63,22301,3.06,73310.8,-9.37,-10.19,-10.23,0,*56
1512504113.84,22302,3.06,73304.8,-9.39,-10.23,-10.23,0,*52
1512504115.06,22303,3.06,73308.0,-9.39,-10.19,-10.09,0,*52
1512504116.29,22304,3.06,73306.5,-9.37,-10.09,-10.09,0,*5A
1512504117.53,22305,3.06,73302.8,-9.37,-10.09,-10.05,0,*57
1512504118.73,22306,3.06,73304.0,-9.39,-10.05,-10.09,0,*5A
1512504119.96,22307,3.06,73290.5,-9.37,-9.97,-10.05,0,*6A
1512504121.19,22308,3.06,73300.5,-9.37,-9.97,-9.97,0,*56
1512504122.42,22309,3.06,73304.3,-9.37,-10.09,-9.97,0,*68
1512504123.63,22310,3.06,73284.5,-9.39,-10.09,-10.05,0,*5D
1512504124.86,22311,3.06,73278.8,-9.37,-10.05,-10.05,0,*5E
1512504126.1,22312,3.06,73304.3,-9.37,-10.09,-10.05,0,*51
1512504127.33,22313,3.06,73306.3,-9.37,-10.05,-10.09,0,*50
1512504128.57,22314,3.06,73298.3,-9.37,-10.23,-10.09,0,*53
1512504129.82,22315,3.06,73304.0,-9.37,-10.19,-10.19,0,*5A
1512504131.07,22316,3.06,73312.5,-9.37,-10.19,-10.23,0,*50
1512504132.31,22317,3.06,73312.8,-9.37,-10.23,-10.23,0,*58
1512504133.57,22318,3.06,73308.3,-9.37,-10.35,-10.35,0,*57
1512504134.84,22319,3.06,73322.8,-9.37,-10.49,-10.41,0,*5E
1512504136.06,22320,3.06,73314.3,-9.39,-10.35,-10.27,0,*51
1512504137.3,22321,3.06,73298.8,-9.37,-10.49,-10.49,0,*5D
1512504138.55,22322,3.06,73320.5,-9.37,-10.49,-10.49,0,*5E
1512504139.79,22323,3.06,73326.0,-9.39,-10.41,-10.49,0,*59
1512504141.09,22324,3.06,73318.5,-9.37,-10.41,-10.41,0,*58
1512504142.34,22325,3.06,73316.8,-9.39,-10.41,-10.35,0,*54
1512504143.58,22326,3.06,73306.3,-9.39,-10.41,-10.35,0,*57
1512504144.86,22327,3.06,73306.8,-9.37,-10.41,-10.35,0,*58
1512504146.08,22328,3.06,73310.8,-9.39,-10.27,-10.27,0,*5A
1512504147.3,22329,3.06,73318.0,-9.39,-10.35,-10.35,0,*5B
1512504148.52,22330,3.06,73322.5,-9.39,-10.27,-10.27,0,*53
1512504149.74,22331,3.06,73308.3,-9.39,-10.27,-10.27,0,*52
1512504150.95,22332,3.06,73316.3,-9.39,-10.23,-10.23,0,*51
1512504152.17,22333,3.06,73276.3,-9.39,-10.23,-10.23,0,*50
1512504153.38,22334,3.06,73230.3,-9.39,-10.23,-10.23,0,*57
1512504154.63,22335,3.06,73246.3,-9.37,-10.23,-10.27,0,*5C
1512504155.87,22336,3.06,73240.5,-9.37,-10.23,-10.23,0,*5B
1512504157.08,22337,3.06,73270.5,-9.39,-10.09,-10.19,0,*55
1512504158.3,22338,3.06,73286.5,-9.39,-10.23,-10.19,0,*52
1512504159.52,22339,3.06,73306.3,-9.39,-10.23,-10.23,0,*5A
1512504160.73,22340,3.06,73278.3,-9.39,-10.23,-10.19,0,*5D
1512504161.98,22341,3.06,73284.0,-9.37,-10.23,-10.23,0,*5B
1512504163.2,22342,3.06,73282.0,-9.39,-10.19,-10.19,0,*56
1512504164.42,22343,3.06,73278.8,-9.39,-10.19,-10.23,0,*5E
1512504165.66,22344,3.06,73288.0,-9.37,-10.05,-10.19,0,*53
1512504166.87,22345,3.06,73294.5,-9.39,-10.23,-10.23,0,*51
1512504168.09,22346,3.06,73286.3,-9.39,-10.19,-10.09,0,*53
1512504169.31,22347,3.06,73294.5,-9.39,-10.19,-10.19,0,*53
1512504170.53,22348,3.06,73314.8,-9.39,-10.19,-10.19,0,*5C
1512504171.74,22349,3.06,73318.3,-9.39,-10.05,-10.05,0,*5D
1512504172.97,22350,3.06,73330.8,-9.37,-10.05,-10.05,0,*5B
1512504174.21,22351,3.06,73316.3,-9.37,-10.09,-10.09,0,*5A
1512504175.41,22352,3.06,73300.0,-9.39,-10.09,-10.05,0,*5B
1512504176.65,22353,3.06,73324.8,-9.37,-10.09,-10.09,0,*58
1512504177.88,22354,3.06,73330.3,-9.37,-10.09,-10.09,0,*5F
1512504179.12,22355,3.06,73328.3,-9.37,-10.05,-10.05,0,*5E
1512504180.35,22356,3.06,73332.8,-9.37,-10.09,-10.09,0,*5D
1512504181.56,22357,3.06,73334.8,-9.39,-10.09,-10.09,0,*52
1512504182.8,22358,3.06,73316.0,-9.37,-10.23,-10.23,0,*53
1512504184.03,22359,3.06,73292.3,-9.39,-10.35,-10.35,0,*5C
1512504185.25,22360,3.06,73292.8,-9.39,-10.35,-10.35,0,*56
1512504186.5,22361,3.06,73300.5,-9.37,-10.27,-10.27,0,*59
1512504187.72,22362,3.06,73292.0,-9.39,-10.35,-10.35,0,*54
1512504188.97,22363,3.06,73276.8,-9.39,-10.35,-10.41,0,*56
1512504190.2,22364,3.06,73256.5,-9.39,-10.35,-10.35,0,*52
1512504191.41,22365,3.06,73268.5,-9.39,-10.49,-10.49,0,*53
1512504192.68,22366,3.06,73276.5,-9.39,-10.41,-10.41,0,*50
1512504193.92,22367,3.06,73266.3,-9.39,-10.49,-10.41,0,*59
1512504195.13,22368,3.06,73242.5,-9.39,-10.49,-10.49,0,*5E
1512504196.38,22369,3.06,73246.8,-9.39,-10.63,-10.53,0,*5C
1512504197.64,22370,3.06,73232.5,-9.37,-10.53,-10.41,0,*5A
1512504198.89,22371,3.06,73220.5,-9.39,-10.41,-10.35,0,*55
1512504200.17,22372,3.06,73202.8,-9.41,-10.31,-10.41,0,*5D
1512504201.41,22373,3.06,73238.3,-9.41,-10.31,-10.31,0,*5B
1512504202.66,22374,3.06,73242.5,-9.41,-10.31,-10.31,0,*5C
1512504203.91,22375,3.06,73248.8,-9.41,-10.31,-10.31,0,*5D
1512504205.16,22376,3.06,73248.8,-9.41,-10.31,-10.31,0,*5E
1512504206.41,22377,3.06,73250.3,-9.41,-10.31,-10.31,0,*5F
1512504207.65,22378,3.06,73266.8,-9.41,-10.31,-10.31,0,*50
1512504208.9,22379,3.06,73260.0,-9.41,-10.27,-10.27,0,*51
1512504210.15,22380,3.06,73254.8,-9.41,-10.27,-10.27,0,*57
1512504211.4,22381,3.06,73250.8,-9.41,-10.23,-10.23,0,*56
1512504212.64,22382,3.06,73284.3,-9.41,-10.27,-10.23,0,*51
1512504213.89,22383,3.06,73340.8,-9.41,-10.15,-10.23,0,*51
1512504215.13,22384,3.06,73364.5,-9.41,-10.15,-10.23,0,*56
1512504216.36,22385,3.06,73326.8,-9.43,-10.23,-10.15,0,*55
1512504217.6,22386,3.06,73314.5,-9.41,-10.23,-10.23,0,*51
1512504218.85,22387,3.06,73288.0,-9.41,-10.27,-10.27,0,*50
1512504220.1,22388,3.06,73266.5,-9.41,-10.15,-10.23,0,*5A
1512504221.35,22389,3.06,73280.0,-9.41,-10.15,-10.15,0,*5E
1512504222.56,22390,3.06,73298.5,-9.39,-10.09,-10.05,0,*55
1512504223.76,22391,3.06,73294.5,-9.39,-10.05,-10.05,0,*58
1512504225.0,22392,3.06,73286.3,-9.37,-10.09,-10.05,0,*59
1512504226.2,22393,3.06,73284.8,-9.39,-10.05,-10.05,0,*5A
1512504227.41,22394,3.06,73278.0,-9.39,-10.09,-10.05,0,*51
1512504228.61,22395,3.06,73292.8,-9.39,-10.09,-10.05,0,*50
1512504229.81,22396,3.06,73294.3,-9.39,-10.05,-10.05,0,*5F
1512504231.05,22397,3.06,73284.5,-9.37,-10.05,-10.05,0,*50
1512504232.25,22398,3.06,73328.8,-9.39,-9.97,-10.05,0,*62
1512504233.46,22399,3.06,73334.8,-9.39,-10.05,-10.05,0,*50
1512504234.66,22400,3.06,73306.0,-9.39,-10.09,-10.09,0,*57
1512504235.87,22401,3.06,73224.0,-9.39,-10.09,-10.09,0,*56
1512504237.08,22402,3.06,73128.0,-9.39,-10.23,-10.09,0,*5D
1512504238.3,22403,3.06,73228.8,-9.39,-10.19,-10.05,0,*59
1512504239.54,22404,3.06,73274.0,-9.37,-10.19,-10.09,0,*5C
1512504240.78,22405,3.06,73306.0,-9.37,-10.09,-10.09,0,*5C
1512504241.99,22406,3.06,73306.8,-9.39,-10.19,-10.09,0,*50
1512504243.21,22407,3.06,73298.8,-9.39,-10.23,-10.19,0,*59
1512504244.44,22408,3.06,73304.3,-9.39,-10.19,-10.19,0,*5F
1512504245.66,22409,3.06,73306.5,-9.39,-10.23,-10.19,0,*57
1512504246.87,22410,3.06,73326.0,-9.39,-10.23,-10.23,0,*56
1512504248.09,22411,3.06,73308.8,-9.39,-10.19,-10.23,0,*5E
1512504249.31,22412,3.06,73284.0,-9.39,-10.27,-10.27,0,*54
1512504250.55,22413,3.06,73232.3,-9.37,-10.27,-10.23,0,*5F
1512504251.8,22414,3.06,73214.3,-9.37,-10.27,-10.27,0,*5C
1512504253.02,22415,3.06,73212.5,-9.39,-10.27,-10.35,0,*50
1512504254.24,22416,3.06,73200.5,-9.39,-10.35,-10.35,0,*50
1512504255.46,22417,3.06,73200.0,-9.39,-10.49,-10.35,0,*5A
1512504256.71,22418,3.06,73216.8,-9.39,-10.35,-10.41,0,*5D
1512504257.93,22419,3.06,73240.5,-9.39,-10.35,-10.27,0,*5C
1512504259.15,22420,3.06,73246.8,-9.39,-10.27,-10.27,0,*55
1512504260.4,22421,3.06,73288.8,-9.37,-10.27,-10.27,0,*5A
1512504261.61,22422,3.06,73294.5,-9.39,-10.27,-10.23,0,*53
1512504262.83,22423,3.06,73276.3,-9.39,-10.23,-10.23,0,*56
1512504264.05,22424,3.06,73246.5,-9.39,-10.23,-10.27,0,*55
1512504265.27,22425,3.06,73244.8,-9.39,-10.35,-10.35,0,*50
1512504266.51,22426,3.06,73230.3,-9.39,-10.49,-10.41,0,*5B
1512504267.74,22427,3.06,73220.5,-9.39,-10.35,-10.35,0,*52
1512504268.96,22428,3.06,73238.5,-9.39,-10.27,-10.27,0,*5D
1512504270.2,22429,3.06,73240.5,-9.41,-10.31,-10.31,0,*53
1512504271.42,22430,3.06,73240.8,-9.39,-10.27,-10.19,0,*59
1512504272.65,22431,3.06,73236.3,-9.39,-10.19,-10.19,0,*55
1512504273.86,22432,3.06,73236.3,-9.39,-10.23,-10.23,0,*56
1512504275.08,22433,3.06,73240.5,-9.39,-10.19,-10.19,0,*57
1512504276.3,22434,3.06,73244.3,-9.39,-10.23,-10.19,0,*59
1512504277.55,22435,3.06,73272.0,-9.41,-10.27,-10.23,0,*5A
1512504278.79,22436,3.06,73264.5,-9.41,-10.23,-10.23,0,*5D
1512504280.04,22437,3.06,73282.3,-9.41,-10.15,-10.23,0,*59
1512504281.29,22438,3.06,73284.5,-9.41,-10.15,-10.15,0,*53
1512504282.53,22439,3.06,73294.5,-9.41,-10.09,-10.09,0,*52
1512504283.73,22440,3.06,73298.3,-9.39,-10.09,-10.05,0,*5F
1512504284.94,22441,3.06,73296.0,-9.39,-10.09,-10.09,0,*52
1512504286.14,22442,3.06,73316.8,-9.39,-10.09,-10.05,0,*5D
1512504287.35,22443,3.06,73322.5,-9.39,-10.09,-10.09,0,*50
1512504288.55,22444,3.06,73328.0,-9.39,-10.05,-10.09,0,*5B
1512504289.79,22445,3.06,73330.5,-9.37,-10.05,-10.09,0,*54
1512504290.99,22446,3.06,73328.0,-9.39,-10.09,-10.05,0,*59
1512504292.2,22447,3.06,73332.3,-9.39,-10.05,-10.05,0,*54
1512504293.43,22448,3.06,73342.8,-9.37,-10.05,-10.09,0,*59
1512504294.66,22449,3.06,73350.3,-9.37,-10.05,-9.97,0,*67
1512504295.86,22450,3.06,73350.5,-9.39,-10.05,-9.97,0,*61
1512504297.09,22451,3.06,73354.3,-9.37,-10.05,-9.97,0,*6E
1512504298.29,22452,3.06,73350.0,-9.39,-9.97,-9.93,0,*54
1512504299.54,22453,3.06,73350.5,-9.37,-9.83,-9.93,0,*5E
1512504300.82,22454,3.06,73354.5,-9.37,-9.83,-9.83,0,*58
1512504302.05,22455,3.06,73354.0,-9.37,-9.93,-9.93,0,*59
1512504303.27,22456,3.06,73358.0,-9.37,-9.97,-9.97,0,*5A
1512504304.5,22457,3.06,73360.3,-9.37,-9.97,-9.97,0,*5B
1512504305.73,22458,3.06,73352.8,-9.37,-9.97,-9.97,0,*54
1512504306.96,22459,3.06,73352.0,-9.37,-9.97,-9.93,0,*51
1512504308.18,22460,3.06,73348.5,-9.37,-9.97,-9.97,0,*5F
1512504309.41,22461,3.06,73350.5,-9.37,-9.97,-9.93,0,*5A
1512504310.64,22462,3.06,73344.0,-9.37,-9.93,-9.97,0,*59
1512504311.87,22463,3.06,73342.0,-9.37,-9.93,-9.97,0,*58
1512504313.1,22464,3.06,73342.5,-9.37,-9.93,-9.93,0,*5B
1512504314.29,22465,3.06,73336.5,-9.35,-9.93,-9.89,0,*53
1512504315.5,22466,3.06,73338.3,-9.35,-9.93,-9.93,0,*5B
1512504316.7,22467,3.06,73336.0,-9.35,-9.93,-9.89,0,*51
1512504317.9,22468,3.06,73338.0,-9.35,-9.93,-9.89,0,*5E
1512504319.09,22469,3.06,73328.3,-9.35,-9.93,-9.89,0,*5F
1512504320.29,22470,3.06,73314.5,-9.35,-9.89,-9.93,0,*57
1512504321.51,22471,3.06,73342.3,-9.35,-9.93,-10.01,0,*6E
1512504322.75,22472,3.06,73356.0,-9.33,-10.01,-10.01,0,*58
1512504323.96,22473,3.06,73346.0,-9.35,-10.01,-9.93,0,*6C
1512504325.17,22474,3.06,73348.5,-9.35,-10.05,-10.01,0,*5C
1512504326.39,22475,3.06,73360.0,-9.35,-10.01,-10.01,0,*59
1512504327.6,22476,3.06,73344.8,-9.35,-10.05,-10.01,0,*5E
1512504328.81,22477,3.06,73334.8,-9.35,-10.05,-10.05,0,*5B
1512504330.04,22478,3.06,73332.3,-9.35,-10.19,-10.19,0,*54
1512504331.29,22479,3.06,73340.8,-9.37,-10.23,-10.19,0,*5E
1512504332.54,22480,3.06,73336.5,-9.33,-10.15,-10.19,0,*59
1512504333.76,22481,3.06,73324.0,-9.35,-10.15,-10.15,0,*52
1512504334.99,22482,3.06,73310.3,-9.35,-10.19,-10.15,0,*5D
1512504336.2,22483,3.06,73310.3,-9.35,-10.05,-10.01,0,*54
1512504337.42,22484,3.06,73300.3,-9.35,-10.01,-10.05,0,*53
1512504338.63,22485,3.06,73288.8,-9.35,-10.05,-10.01,0,*52
1512504339.84,22486,3.06,73286.8,-9.35,-10.05,-10.05,0,*55
1512504341.05,22487,3.06,73306.8,-9.35,-10.05,-10.05,0,*54
1512504342.26,22488,3.06,73314.5,-9.35,-10.05,-10.01,0,*5F
1512504343.48,22489,3.06,73320.8,-9.35,-10.15,-10.05,0,*5B
1512504344.7,22490,3.06,73320.3,-9.35,-10.15,-10.15,0,*52
1512504345.93,22491,3.06,73330.3,-9.35,-10.15,-10.19,0,*5F
1512504347.16,22492,3.06,73322.3,-9.35,-10.15,-10.19,0,*5C
1512504348.38,22493,3.06,73320.0,-9.35,-10.19,-10.15,0,*5D
1512504349.63,22494,3.06,73316.0,-9.33,-10.15,-10.19,0,*5C
1512504350.86,22495,3.06,73300.8,-9.35,-10.15,-10.15,0,*57
1512504352.07,22496,3.06,73286.0,-9.35,-10.05,-10.15,0,*55
1512504353.29,22497,3.06,73306.3,-9.35,-10.05,-10.15,0,*54
1512504354.51,22498,3.06,73304.8,-9.35,-10.15,-10.15,0,*5A
1512504355.77,22499,3.06,73308.0,-9.37,-10.19,-10.19,0,*59
1512504356.99,22500,3.06,73310.3,-9.35,-10.15,-10.15,0,*5A
1512504358.22,22501,3.06,73314.8,-9.35,-10.15,-10.15,0,*5B
1512504359.44,22502,3.06,73316.5,-9.35,-10.15,-10.05,0,*59
1512504360.67,22503,3.06,73322.5,-9.33,-10.05,-10.05,0,*5F
1512504361.88,22504,3.06,73328.3,-9.35,-10.05,-10.01,0,*5A
1512504363.09,22505,3.06,73332.5,-9.35,-10.05,-10.05,0,*5F
1512504364.31,22506,3.06,73342.0,-9.35,-10.15,-10.05,0,*5D
1512504365.53,22507,3.06,73338.0,-9.35,-10.15,-10.15,0,*5D
1512504366.78,22508,3.06,73338.0,-9.37,-10.23,-10.23,0,*50
1512504368.0,22509,3.06,73340.3,-9.35,-10.19,-10.19,0,*53
1512504369.25,22510,3.06,73342.5,-9.33,-10.19,-10.19,0,*5D
1512504370.48,22511,3.06,73342.3,-9.35,-10.19,-10.19,0,*5A
1512504371.71,22512,3.06,73340.5,-9.35,-10.19,-10.19,0,*59
1512504372.95,22513,3.06,73346.0,-9.37,-10.19,-10.23,0,*53
1512504374.21,22514,3.06,73352.3,-9.37,-10.19,-10.19,0,*5D
1512504375.45,22515,3.06,73326.5,-9.37,-10.19,-10.23,0,*55
1512504376.7,22516,3.06,73334.3,-9.37,-10.23,-10.19,0,*56
1512504377.95,22517,3.06,73340.3,-9.37,-10.19,-10.23,0,*57
1512504379.19,22518,3.06,73340.3,-9.37,-10.19,-10.09,0,*50
1512504380.43,22519,3.06,73344.0,-9.37,-10.09,-10.05,0,*5C
1512504381.64,22520,3.06,73348.3,-9.35,-10.05,-10.01,0,*5C
1512504382.86,22521,3.06,73342.0,-9.35,-10.05,-10.01,0,*5D
1512504384.1,22522,3.06,73324.3,-9.33,-10.01,-10.15,0,*59
1512504385.33,22523,3.06,73312.3,-9.35,-10.15,-10.15,0,*5B
1512504386.58,22524,3.06,73316.3,-9.33,-10.19,-10.15,0,*56
1512504387.82,22525,3.06,73290.5,-9.37,-10.09,-10.19,0,*5E
1512504389.06,22526,3.06,73300.5,-9.37,-10.19,-10.09,0,*5D
1512504390.28,22527,3.06,73270.0,-9.35,-10.15,-10.05,0,*5E
1512504391.5,22528,3.06,73258.0,-9.35,-10.15,-10.05,0,*51
1512504392.73,22529,3.06,73280.3,-9.35,-10.19,-10.19,0,*51
1512504393.96,22530,3.06,73294.8,-9.37,-10.09,-10.05,0,*57
1512504395.18,22531,3.06,73248.0,-9.35,-10.05,-10.01,0,*5C
1512504396.4,22532,3.06,73174.0,-9.35,-10.01,-10.01,0,*5B
1512504397.62,22533,3.06,73166.8,-9.35,-10.15,-10.19,0,*56
1512504398.85,22534,3.06,73174.5,-9.35,-10.19,-10.19,0,*5D
1512504400.07,22535,3.06,73194.5,-9.35,-10.19,-10.15,0,*50
1512504401.29,22536,3.06,73210.3,-9.35,-10.01,-10.05,0,*5B
1512504402.5,22537,3.06,73234.8,-9.35,-9.93,-10.01,0,*6D
1512504403.72,22538,3.06,73278.8,-9.35,-10.01,-10.01,0,*51
1512504404.92,22539,3.06,73266.3,-9.35,-9.93,-9.93,0,*50
1512504406.12,22540,3.06,73246.5,-9.35,-9.89,-9.93,0,*55
1512504407.32,22541,3.06,73244.8,-9.35,-9.93,-9.93,0,*5F
1512504408.54,22542,3.06,73252.0,-9.33,-9.89,-9.89,0,*5A
1512504409.74,22543,3.06,73240.3,-9.35,-9.93,-9.93,0,*5D
1512504410.98,22544,3.06,73268.5,-9.33,-10.01,-9.93,0,*6F
1512504412.18,22545,3.06,73278.5,-9.35,-9.93,-9.93,0,*5B
1512504413.42,22546,3.06,73284.8,-9.33,-10.01,-10.01,0,*5E
1512504414.63,22547,3.06,73294.5,-9.35,-9.93,-10.01,0,*6A
1512504415.85,22548,3.06,73284.0,-9.35,-10.01,-10.01,0,*56
1512504417.09,22549,3.06,73294.8,-9.33,-9.93,-10.01,0,*62
1512504418.32,22550,3.06,73288.8,-9.33,-9.93,-10.01,0,*6A
1512504419.56,22551,3.06,73298.8,-9.33,-10.01,-10.05,0,*5C
1512504420.77,22552,3.06,73308.5,-9.35,-10.01,-9.93,0,*6E
1512504421.98,22553,3.06,73324.0,-9.35,-9.89,-10.01,0,*64
1512504423.21,22554,3.06,73338.3,-9.33,-9.93,-10.01,0,*6E
1512504424.44,22555,3.06,73338.3,-9.33,-9.93,-9.93,0,*5C
1512504425.65,22556,3.06,73342.3,-9.35,-10.05,-10.05,0,*59
1512504426.88,22557,3.06,73342.8,-9.33,-9.93,-10.05,0,*69
1512504428.11,22558,3.06,73350.3,-9.33,-10.05,-10.01,0,*55
1512504429.36,22559,3.06,73338.0,-9.33,-10.15,-10.05,0,*51
1512504430.61,22560,3.06,73342.0,-9.33,-10.19,-10.19,0,*5A
1512504431.85,22561,3.06,73350.0,-9.33,-10.19,-10.23,0,*52
1512504433.07,22562,3.06,73344.0,-9.35,-10.23,-10.23,0,*5E
1512504434.28,22563,3.06,73344.0,-9.35,-10.23,-10.23,0,*5F
1512504435.5,22564,3.06,73346.0,-9.35,-10.23,-10.23,0,*58
1512504436.72,22565,3.06,73328.0,-9.35,-10.23,-10.23,0,*59
1512504437.93,22566,3.06,73332.8,-9.35,-10.23,-10.23,0,*5A
1512504439.15,22567,3.06,73346.8,-9.35,-10.23,-10.23,0,*5B
1512504440.36,22568,3.06,73342.5,-9.35,-10.31,-10.23,0,*57
1512504441.58,22569,3.06,73324.0,-9.35,-10.45,-10.45,0,*55
1512504442.8,22570,3.06,73336.0,-9.35,-10.45,-10.35,0,*5A
1512504444.02,22571,3.06,73350.3,-9.35,-10.45,-10.31,0,*5F
1512504445.26,22572,3.06,73350.0,-9.33,-10.31,-10.31,0,*59
1512504446.49,22573,3.06,73338.8,-9.35,-10.31,-10.35,0,*5A
1512504447.71,22574,3.06,73314.5,-9.35,-10.31,-10.35,0,*5D
1512504448.93,22575,3.06,73304.3,-9.35,-10.23,-10.19,0,*51
1512504450.19,22576,3.06,73322.3,-9.37,-10.19,-10.19,0,*59
1512504451.44,22577,3.06,73336.8,-9.37,-10.19,-10.19,0,*58
1512504452.67,22578,3.06,73338.5,-9.37,-10.09,-10.09,0,*57
1512504453.92,22579,3.06,73334.0,-9.37,-10.09,-10.19,0,*57
1512504455.16,22580,3.06,73344.3,-9.37,-10.19,-10.05,0,*5D
1512504456.41,22581,3.06,73336.8,-9.37,-10.19,-10.09,0,*50
1512504457.64,22582,3.06,73336.0,-9.37,-10.09,-10.09,0,*52
1512504458.88,22583,3.06,73336.5,-9.37,-10.01,-10.05,0,*57
1512504460.09,22584,3.06,73342.5,-9.35,-10.05,-10.05,0,*56
1512504461.31,22585,3.06,73346.3,-9.35,-10.15,-10.15,0,*57
1512504462.54,22586,3.06,73336.5,-9.35,-10.19,-10.15,0,*58
1512504463.79,22587,3.06,73340.8,-9.33,-10.19,-10.19,0,*53
1512504465.01,22588,3.06,73354.5,-9.35,-10.19,-10.23,0,*53
1512504466.23,22589,3.06,73352.5,-9.35,-10.19,-10.23,0,*52
1512504467.46,22590,3.06,73350.3,-9.35,-10.19,-10.19,0,*53
1512504468.68,22591,3.06,73348.0,-9.35,-10.19,-10.19,0,*52
1512504469.91,22592,3.06,73350.3,-9.35,-10.19,-10.19,0,*51
1512504471.14,22593,3.06,73350.5,-9.35,-10.19,-10.19,0,*50
1512504472.35,22594,3.06,73352.5,-9.35,-10.23,-10.23,0,*57
1512504473.57,22595,3.06,73354.3,-9.35,-10.23,-10.23,0,*56
1512504474.79,22596,3.06,73348.0,-9.35,-10.23,-10.19,0,*5C
1512504476.02,22597,3.06,73344.0,-9.35,-10.15,-10.15,0,*54
1512504477.24,22598,3.06,73348.8,-9.35,-10.15,-10.15,0,*5B
1512504478.49,22599,3.06,73352.3,-9.33,-10.19,-10.15,0,*50
1512504479.72,22600,3.06,73346.5,-9.35,-10.19,-10.19,0,*59
1512504480.95,22601,3.06,73344.8,-9.35,-10.19,-10.19,0,*58
1512504482.17,22602,3.06,73364.3,-9.35,-10.19,-10.19,0,*5B
1512504483.4,22603,3.06,73366.5,-9.35,-10.19,-10.19,0,*5A
1512504484.62,22604,3.06,73336.0,-9.35,-10.23,-10.23,0,*5D
1512504485.83,22605,3.06,73244.0,-9.35,-10.23,-10.23,0,*5C
1512504487.1,22606,3.06,73196.3,-9.37,-10.49,-10.41,0,*55
1512504488.37,22607,3.06,73182.8,-9.39,-10.41,-10.41,0,*52
1512504489.64,22608,3.06,73154.0,-9.37,-10.49,-10.63,0,*5B
1512504490.92,22609,3.06,73172.0,-9.37,-10.49,-10.41,0,*5A
1512504492.21,22610,3.06,73204.8,-9.37,-10.41,-10.41,0,*5A
1512504493.48,22611,3.06,73202.8,-9.39,-10.41,-10.41,0,*55
1512504494.74,22612,3.06,73184.8,-9.37,-10.35,-10.35,0,*58
1512504495.99,22613,3.06,73184.5,-9.37,-10.27,-10.35,0,*5A
1512504497.21,22614,3.06,73180.5,-9.39,-10.27,-10.27,0,*50
1512504498.42,22615,3.06,73212.8,-9.39,-10.27,-10.23,0,*55
1512504499.66,22616,3.06,73218.0,-9.37,-10.23,-10.23,0,*5C
1512504500.92,22617,3.06,73212.8,-9.37,-10.19,-10.19,0,*5D
1512504502.14,22618,3.06,73228.8,-9.39,-10.19,-10.19,0,*5C